Date String (YYYY-MM-DD hh:mm:ss) UTC,Instrument flags,Ambient pressure (hPa),Sample flow (lpm),Bypass flow (lpm),Sample temperature (°C),Ambient temperature (°C),ASC tube jacket temperature (°C),LED temperature (°C),Box temperature (°C),Sample RH (%),Span deviation,Mass concentration (μg/m³),Mass concentration (μg/m³),Mass concentration (μg/m³)
DateTimeUTC,F1_M11,P_M11,Q1_M11,Q2_M11,T1_M11,T2_M11,T3_M11,T4_M11,T5_M11,U1_M11,ZSPAN_M11,X0_M11,X2_M11,X1_M11
2021-11-20 07:00:00,,0824.5,4.99,0.00,27.0,26.1,00.0,35.9,28.8,10.5,0000.0,0008.16,0003.93,0003.44
2021-11-20 07:01:00,,0824.4,5.02,0.00,27.0,26.1,00.0,35.9,28.8,10.5,0000.0,0008.38,0003.95,0003.44
2021-11-20 07:02:00,,0824.7,5.00,0.00,27.0,26.1,00.0,35.9,28.7,10.5,0000.0,0008.34,0003.94,0003.44
2021-11-20 07:03:00,,0824.5,5.00,0.00,27.0,26.1,00.0,35.9,28.7,10.5,0000.0,0008.63,0003.95,0003.43
2021-11-20 07:04:00,,0824.4,4.99,0.00,26.9,26.1,00.0,35.9,28.7,10.5,0000.0,0008.05,0003.94,0003.42
2021-11-20 07:05:00,,0824.4,5.01,0.00,27.0,26.1,00.0,35.9,28.8,10.5,0000.0,0008.10,0003.95,0003.42
2021-11-20 07:06:00,,0824.4,5.00,0.00,26.9,26.1,00.0,35.9,28.7,10.5,0000.0,0008.08,0003.95,0003.42
2021-11-20 07:07:00,,0824.4,5.00,0.00,26.9,26.1,00.0,35.9,28.7,10.5,0000.0,0008.09,0003.95,0003.42
2021-11-20 07:08:00,,0824.4,5.00,0.00,26.9,26.1,00.0,35.9,28.7,10.5,0000.0,0008.14,0003.95,0003.42
2021-11-20 07:09:00,,0824.4,5.02,0.00,26.9,26.1,00.0,35.9,28.7,10.5,0000.0,0008.14,0003.93,0003.42
2021-11-20 07:10:00,,0824.4,4.99,0.00,26.9,26.1,00.0,35.9,28.7,10.5,0000.0,0008.18,0003.94,0003.42
2021-11-20 07:11:00,,0824.5,5.00,0.00,26.9,26.1,00.0,35.9,28.7,10.5,0000.0,0007.76,0003.95,0003.44
2021-11-20 07:12:00,,0824.6,5.01,0.00,26.9,26.1,00.0,35.9,28.7,10.5,0000.0,0007.58,0003.94,0003.44
2021-11-20 07:13:00,,0824.6,5.00,0.00,26.9,26.1,00.0,35.9,28.7,10.6,0000.0,0007.43,0003.95,0003.45
2021-11-20 07:14:00,,0824.5,4.99,0.00,26.9,26.1,00.0,35.9,28.7,10.6,0000.0,0006.97,0003.95,0003.46
2021-11-20 07:15:00,,0824.4,4.98,0.00,26.9,26.1,00.0,35.9,28.7,10.6,0000.0,0006.85,0003.95,0003.47
2021-11-20 07:16:00,,0824.4,5.00,0.00,26.9,26.1,00.0,35.9,28.7,10.6,0000.0,0006.68,0003.93,0003.47
2021-11-20 07:17:00,,0824.7,5.01,0.00,26.9,26.1,00.0,35.9,28.7,10.6,0000.0,0006.80,0003.94,0003.47
2021-11-20 07:18:00,,0824.8,4.99,0.00,26.9,26.1,00.0,35.9,28.7,10.6,0000.0,0006.89,0003.95,0003.47
2021-11-20 07:19:00,,0824.6,4.99,0.00,26.9,26.1,00.0,35.9,28.7,10.6,0000.0,0006.68,0003.93,0003.47
2021-11-20 07:20:00,,0824.6,5.02,0.00,26.9,26.1,00.0,35.9,28.7,10.5,0000.0,0006.48,0003.92,0003.47
2021-11-20 07:21:00,,0824.7,5.00,0.00,26.9,26.1,00.0,35.9,28.7,10.5,0000.0,0006.40,0003.91,0003.46
2021-11-20 07:22:00,,0824.6,4.99,0.00,26.9,26.1,00.0,35.9,28.7,10.5,0000.0,0006.48,0003.91,0003.45
2021-11-20 07:23:00,,0824.6,5.00,0.00,27.0,26.1,00.0,35.9,28.8,10.5,0000.0,0006.50,0003.90,0003.44
2021-11-20 07:24:00,,0824.5,5.01,0.00,27.0,26.1,00.0,35.9,28.7,10.5,0000.0,0006.82,0003.93,0003.43
2021-11-20 07:25:00,,0824.5,4.98,0.00,27.0,26.1,00.0,35.9,28.7,10.5,0000.0,0006.72,0003.89,0003.43
2021-11-20 07:26:00,,0824.8,5.01,0.00,27.0,26.1,00.0,35.9,28.7,10.5,0000.0,0006.95,0003.87,0003.42
2021-11-20 07:27:00,,0824.6,4.99,0.00,27.0,26.1,00.0,35.9,28.8,10.5,0000.0,0007.13,0003.90,0003.42
2021-11-20 07:28:00,,0824.6,4.99,0.00,27.0,26.2,00.0,35.9,28.8,10.5,0000.0,0007.04,0003.91,0003.43
2021-11-20 07:29:00,,0824.6,5.01,0.00,27.0,26.2,00.0,35.9,28.7,10.5,0000.0,0006.75,0003.88,0003.43
2021-11-20 07:30:00,,0824.7,5.01,0.00,27.0,26.2,00.0,35.9,28.8,10.5,0000.0,0006.94,0003.91,0003.43
2021-11-20 07:31:00,,0824.8,4.98,0.00,27.0,26.1,00.0,36.0,28.8,10.5,0000.0,0007.30,0003.95,0003.43
2021-11-20 07:32:00,,0824.6,5.01,0.00,27.0,26.1,00.0,36.0,28.8,10.5,0000.0,0007.33,0003.94,0003.41
2021-11-20 07:33:00,,0824.7,4.98,0.00,27.0,26.2,00.0,36.0,28.8,10.5,0000.0,0007.72,0003.95,0003.43
2021-11-20 07:34:00,,0824.5,5.01,0.00,27.0,26.2,00.0,36.0,28.8,10.5,0000.0,0008.04,0003.98,0003.44
2021-11-20 07:35:00,,0824.6,5.00,0.00,27.0,26.2,00.0,36.0,28.8,10.5,0000.0,0008.07,0003.97,0003.45
2021-11-20 07:36:00,,0824.6,5.01,0.00,27.0,26.1,00.0,36.0,28.8,10.5,0000.0,0008.06,0003.98,0003.46
2021-11-20 07:37:00,,0824.6,5.00,0.00,27.0,26.1,00.0,36.0,28.8,10.5,0000.0,0007.92,0003.95,0003.46
2021-11-20 07:38:00,,0824.7,5.00,0.00,27.0,26.1,00.0,36.0,28.8,10.5,0000.0,0007.83,0003.93,0003.45
2021-11-20 07:39:00,,0824.7,4.99,0.00,27.0,26.1,00.0,36.0,28.7,10.5,0000.0,0007.81,0003.92,0003.45
2021-11-20 07:40:00,,0824.7,5.02,0.00,27.0,26.1,00.0,36.0,28.7,10.5,0000.0,0007.94,0003.92,0003.43
2021-11-20 07:41:00,,0824.8,5.00,0.00,26.9,26.1,00.0,35.9,28.7,10.5,0000.0,0007.85,0003.87,0003.42
2021-11-20 07:42:00,,0824.8,5.00,0.00,27.0,26.0,00.0,36.0,28.7,10.5,0000.0,0008.11,0003.82,0003.41
2021-11-20 07:43:00,,0824.8,4.99,0.00,27.0,26.0,00.0,35.9,28.7,10.5,0000.0,0008.21,0003.83,0003.42
2021-11-20 07:44:00,,0824.8,5.01,0.00,27.0,26.1,00.0,35.9,28.7,10.5,0000.0,0008.25,0003.80,0003.41
2021-11-20 07:45:00,,0824.8,5.00,0.00,27.0,26.1,00.0,35.9,28.8,10.5,0000.0,0008.45,0003.78,0003.41
2021-11-20 07:46:00,,0824.8,5.01,0.00,27.0,26.1,00.0,36.0,28.8,10.5,0000.0,0008.56,0003.77,0003.41
2021-11-20 07:47:00,,0824.8,5.01,0.00,27.0,26.1,00.0,36.0,28.8,10.5,0000.0,0008.85,0003.79,0003.40
2021-11-20 07:48:00,,0824.9,4.99,0.00,27.0,26.1,00.0,36.0,28.7,10.5,0000.0,0009.03,0003.82,0003.39
2021-11-20 07:49:00,,0824.8,5.00,0.00,27.0,26.1,00.0,36.0,28.7,10.5,0000.0,0009.18,0003.82,0003.40
2021-11-20 07:50:00,,0824.8,5.01,0.00,27.0,26.1,00.0,36.0,28.7,10.5,0000.0,0009.32,0003.81,0003.41
2021-11-20 07:51:00,,0824.7,4.98,0.00,27.0,26.1,00.0,36.0,28.7,10.5,0000.0,0009.31,0003.84,0003.42
2021-11-20 07:52:00,,0824.7,5.01,0.00,27.0,26.1,00.0,36.0,28.8,10.5,0000.0,0009.31,0003.85,0003.43
2021-11-20 07:53:00,,0824.6,5.00,0.00,27.0,26.1,00.0,36.0,28.8,10.5,0000.0,0008.97,0003.87,0003.44
2021-11-20 07:54:00,,0824.6,4.99,0.00,27.0,26.1,00.0,36.0,28.8,10.5,0000.0,0008.86,0003.87,0003.44
2021-11-20 07:55:00,,0824.7,5.01,0.00,27.0,26.1,00.0,36.0,28.8,10.5,0000.0,0008.38,0003.88,0003.44
2021-11-20 07:56:00,,0824.7,4.99,0.00,26.9,26.1,00.0,36.0,28.7,10.5,0000.0,0007.99,0003.90,0003.44
2021-11-20 07:57:00,,0824.6,5.01,0.00,26.9,26.0,00.0,36.0,28.7,10.5,0000.0,0007.76,0003.91,0003.43
2021-11-20 07:58:00,,0824.6,4.98,0.00,26.9,26.0,00.0,35.9,28.7,10.6,0000.0,0007.79,0003.93,0003.45
2021-11-20 07:59:00,,0824.6,5.01,0.00,26.9,26.0,00.0,35.9,28.7,10.6,0000.0,0007.67,0003.94,0003.46
